Location: Borojevi?i
(45.0486°N, 16.2297°E)
Time: 05:35:43
(UTC+00:00)

Meteor 2-3 Rocket - Pass Details

Date: 08 August 2020
Orbit: 841 x 886 km, 81.2° (Epoch: 19 September)

Event Time Altitude Azimuth Distance (km) Brightness Sun altitude
Rises 18:38:52 0° 197° (SSW) 3,467 6.8 -5.1°
Reaches altitude 10° 18:41:19 10° 200° (SSW) 2,536 6.1 -5.5°
Maximum altitude 18:47:04 67° 283° (WNW) 961 4.3 -6.4°
Drops below altitude 10° 18:52:52 10° 6° (N) 2,559 6.6 -7.3°
Sets 18:55:21 0° 9° (N) 3,500 7.2 -7.6°
